DateTimeUTC,F1_A11,F1_S11,BsB_S11,BsG_S11,BsR_S11,BbsB_S11,BbsG_S11,BbsR_S11,BaB_A11,BaG_A11,BaR_A11,Tu_S11,T_S11,Uu_S11,U_S11,P_S11,T1_A11
2021-11-10T08:00:00Z,00000200,21000000,,,,,,,0000.02,-000.15,0000.02,18.4,25.3,,00.0,0639.3,31.0
2021-11-10T08:01:00Z,00000200,21000000,,,,,,,0000.11,-000.07,0000.05,18.4,25.4,,00.0,0639.3,31.0
2021-11-10T08:02:00Z,00000200,21000000,,,,,,,-000.19,0000.08,-000.01,18.4,25.4,,00.0,0639.3,31.0
2021-11-10T08:03:00Z,00000200,61000000,,,,,,,0000.11,0000.20,-000.13,18.4,25.4,,00.0,0639.3,31.0
2021-11-10T08:04:00Z,00000200,41000000,-000.28,-000.01,-000.28,-000.18,0000.12,0000.21,-000.10,0000.15,0000.24,18.8,25.3,,00.0,0640.2,31.0
2021-11-10T08:05:00Z,00000200,01000000,0000.10,-000.03,0000.31,-000.34,-000.18,0000.27,0000.19,-000.27,-000.02,18.8,25.3,,00.0,0640.2,31.0
2021-11-10T08:06:00Z,00000200,01000000,0000.39,-000.13,0000.03,0000.36,0000.30,0000.18,-000.42,-000.56,-000.24,18.7,25.2,,00.0,0640.2,30.9
2021-11-10T08:07:00Z,00000200,01000000,0000.26,-000.09,0000.18,0000.16,-000.29,0000.04,0000.50,0000.49,0000.04,18.6,25.2,,00.0,0640.2,30.9
2021-11-10T08:08:00Z,00000200,01000000,0000.50,-000.19,-000.20,0000.53,0000.08,0000.23,-000.15,-000.29,-000.13,18.5,25.1,,00.0,0640.2,30.9
2021-11-10T08:09:00Z,00000200,01000000,0001.13,0000.20,0000.00,-000.47,0000.04,0000.18,-000.10,0000.11,-000.07,18.4,25.1,,00.0,0640.2,30.9
2021-11-10T08:10:00Z,00000200,01000000,0000.54,0000.27,0000.20,0000.42,0000.18,0000.11,0000.01,0000.15,0000.12,18.4,25.0,,00.0,0640.2,30.9
2021-11-10T08:11:00Z,00000200,01000000,-000.34,0000.21,-000.11,0000.05,-000.10,0000.08,0000.47,0000.22,0000.18,18.4,25.0,,00.0,0640.2,30.9
2021-11-10T08:12:00Z,00000200,01000000,0001.05,-000.09,-000.06,0000.62,0000.10,0000.41,-000.23,-000.09,-000.06,18.4,25.0,,00.0,0640.2,30.9
2021-11-10T08:13:00Z,00000200,01000000,0000.72,-000.23,0000.11,-000.06,0000.26,0000.48,-000.26,0000.16,0000.29,18.5,25.1,,00.0,0640.2,30.9
2021-11-10T08:14:00Z,00000200,01000000,0000.62,-000.23,0000.15,-000.13,-000.10,0000.19,0000.20,-000.03,-000.13,18.5,25.1,,00.0,0640.2,31.0
2021-11-10T08:15:00Z,00000200,01000000,0000.48,-000.08,-000.23,-000.60,0000.18,0000.03,0000.16,-000.13,-000.17,18.6,25.1,,00.0,0640.3,30.9
2021-11-10T08:16:00Z,00000200,01000000,-000.09,0000.09,-000.10,0000.79,0000.25,-000.11,-000.20,0000.38,0000.27,18.7,25.1,,00.0,0640.3,31.0
2021-11-10T08:17:00Z,00000200,01000000,0000.13,0000.08,-000.07,0000.01,0000.16,0000.37,-000.02,0000.02,-000.23,18.7,25.1,,00.0,0640.3,31.0
2021-11-10T08:18:00Z,00000200,01000000,0000.07,0000.08,-000.19,-000.20,-000.01,0000.06,0000.43,-000.13,0000.60,18.7,25.1,,00.0,0640.3,31.0
2021-11-10T08:19:00Z,00000200,01000000,0000.26,-000.08,-000.14,0000.45,0000.14,0000.02,-000.09,0000.28,-000.27,18.8,25.2,,00.0,0640.3,31.0
2021-11-10T08:20:00Z,00000200,01000000,0000.29,0000.02,0000.01,0001.00,-000.06,0000.23,0000.24,-000.27,0000.02,18.8,25.1,,00.0,0640.3,31.0
2021-11-10T08:21:00Z,00000200,01000000,0000.31,0000.34,-000.04,-000.49,-000.09,0000.22,-000.24,-000.02,-000.18,18.7,25.1,,00.0,0640.3,30.9
2021-11-10T08:22:00Z,00000200,01000000,0001.34,0000.12,0000.02,0000.10,0000.14,0000.25,0000.11,-000.11,0000.26,18.6,25.1,,00.0,0640.3,30.9
2021-11-10T08:23:00Z,00000200,01000000,0000.48,0000.42,-000.10,-000.37,0000.17,-000.26,-000.43,-000.05,-000.46,18.5,25.1,,00.0,0640.3,30.9
2021-11-10T08:24:00Z,00000200,01000000,0000.82,-000.13,0000.02,-000.74,-000.17,0000.10,0000.38,0000.19,0000.01,18.4,25.0,,00.0,0640.3,30.9
2021-11-10T08:25:00Z,00000200,01000000,0000.35,0000.10,0000.01,-000.19,-000.22,0000.06,-000.19,-000.36,0000.03,18.4,25.0,,00.0,0640.3,30.9
2021-11-10T08:26:00Z,00000200,01000000,0000.89,-000.39,0000.05,0000.30,-000.02,0000.30,0000.40,0000.35,0000.12,18.4,25.0,,00.0,0640.3,30.9
2021-11-10T08:27:00Z,00000200,01000000,0000.06,-000.28,0000.06,-000.02,0000.24,0000.10,-000.21,0000.11,0000.01,18.4,25.0,,00.0,0640.3,30.9
2021-11-10T08:28:00Z,00000200,01000000,0000.60,0000.33,0000.26,-000.14,0000.11,0000.17,0000.10,-000.37,-000.07,18.5,25.0,,00.0,0640.3,30.9
2021-11-10T08:29:00Z,00000200,01000000,0000.58,-000.02,-000.00,0000.20,0000.04,-000.23,0000.15,0000.23,-000.08,18.5,25.0,,00.0,0640.4,30.9
2021-11-10T08:30:00Z,00000200,01000000,-000.13,0000.15,-000.52,-000.17,-000.23,-000.18,-000.61,0000.02,-000.01,18.6,25.0,,00.0,0640.4,30.9
2021-11-10T08:31:00Z,00000200,01000000,0000.62,-000.09,-000.25,0000.29,0000.15,0000.08,0000.38,0000.05,0000.23,18.7,25.0,,00.0,0640.4,31.0
2021-11-10T08:32:00Z,00000200,01000000,0000.45,-000.05,0000.08,-000.04,-000.02,0000.07,-000.16,-000.44,-000.10,18.7,25.1,,00.0,0640.4,31.0
2021-11-10T08:33:00Z,00000200,01000000,0000.16,0000.05,-000.02,-000.04,0000.15,-000.08,0000.34,0000.48,-000.08,18.7,25.1,,00.0,0640.4,31.0
2021-11-10T08:34:00Z,00000200,01000000,0000.37,-000.10,-000.18,0000.15,0000.23,0000.16,-000.16,-000.34,0000.17,18.7,25.1,,00.0,0640.4,30.9
2021-11-10T08:35:00Z,00000200,01000000,0000.35,0000.15,-000.23,0000.05,0000.02,-000.41,-000.42,-000.21,-000.64,18.6,25.1,,00.0,0640.4,30.9
2021-11-10T08:36:00Z,00000200,01000000,0000.21,0000.11,0000.22,0000.11,-000.07,0000.09,-000.03,0000.18,0000.05,18.5,25.0,,00.0,0640.4,30.9
2021-11-10T08:37:00Z,00000200,01000000,0000.40,0000.02,0000.04,-000.10,0000.28,0000.54,0000.10,-000.34,0000.15,18.4,25.0,,00.0,0640.4,30.9
2021-11-10T08:38:00Z,00000200,01000000,-000.42,-000.10,0000.01,-000.29,-000.07,0000.42,-000.30,-000.23,-000.36,18.3,24.9,,00.0,0640.4,30.9
2021-11-10T08:39:00Z,00000200,01000000,0000.30,0000.39,-000.17,0000.52,0000.38,0000.06,-000.08,0000.05,-000.16,18.2,24.9,,00.0,0640.4,30.9
2021-11-10T08:40:00Z,00000200,01000000,0000.65,0000.02,-000.26,0000.70,0000.12,0000.19,0000.18,-000.03,0000.04,18.1,24.8,,00.0,0640.4,30.9
2021-11-10T08:41:00Z,00000200,01000000,0000.11,-000.09,-000.07,0000.50,-000.03,0000.16,-000.04,-000.02,0000.03,18.2,24.8,,00.0,0640.4,30.9
2021-11-10T08:42:00Z,00000200,01000000,0000.43,0000.03,-000.24,0000.29,0000.04,0000.06,0000.16,0000.43,0000.24,18.2,24.8,,00.0,0640.4,30.9
2021-11-10T08:43:00Z,00000200,01000000,0000.46,-000.19,0000.32,0000.41,-000.14,0000.33,-000.11,0000.03,0000.02,18.3,24.9,,00.0,0640.4,30.9
2021-11-10T08:44:00Z,00000200,01000000,0000.29,-000.33,-000.28,0000.74,0000.15,0000.08,0000.12,-000.30,-000.04,18.3,24.9,,00.0,0640.4,30.9
2021-11-10T08:45:00Z,00000200,01000000,0000.12,0000.23,0000.02,0000.46,-000.19,0000.22,0000.16,0000.51,0000.45,18.4,24.9,,00.0,0640.4,30.9
2021-11-10T08:46:00Z,00000200,01000000,0000.06,0000.24,0000.21,0000.12,-000.06,0000.12,0000.24,-000.06,-000.06,18.4,24.9,,00.0,0640.4,30.9
2021-11-10T08:47:00Z,00000200,01000000,0000.13,0000.15,0000.09,0000.21,0000.15,0000.24,-000.01,0000.32,0000.13,18.5,24.9,,00.0,0640.4,30.9
2021-11-10T08:48:00Z,00000200,01000000,0000.09,0000.10,-000.17,0000.29,-000.00,-000.08,0000.08,-000.09,-000.09,18.5,25.0,,00.0,0640.5,31.0
2021-11-10T08:49:00Z,00000200,01000000,0000.56,-000.09,-000.24,0000.03,0000.24,0000.37,0000.03,0000.06,0000.09,18.6,25.0,,00.0,0640.4,31.0
2021-11-10T08:50:00Z,00000200,01000000,0000.66,0000.00,0000.06,0000.57,0000.44,0000.09,0000.11,0000.19,0000.23,18.6,25.0,,00.0,0640.4,31.0
2021-11-10T08:51:00Z,00000200,01000000,0000.56,0000.04,-000.27,0000.24,0000.20,-000.01,-000.07,-000.15,-000.21,18.6,25.0,,00.0,0640.4,30.9
2021-11-10T08:52:00Z,00000200,01000000,0000.59,0000.16,-000.15,0000.16,0000.21,0000.06,0000.06,-000.33,0000.42,18.5,25.0,,00.0,0640.4,30.9
2021-11-10T08:53:00Z,00000200,01000000,0000.13,0000.23,-000.06,0000.55,0000.15,-000.05,0000.26,0000.71,-000.47,18.4,24.9,,00.0,0640.4,30.9
2021-11-10T08:54:00Z,00000200,01000000,0001.18,0000.26,0000.07,0000.43,-000.10,0000.35,-000.20,-000.44,-000.12,18.3,24.9,,00.0,0640.4,30.9
2021-11-10T08:55:00Z,00000200,01000000,0000.16,0000.25,-000.02,0000.09,0000.21,0000.15,0000.07,0000.17,0000.28,18.3,24.8,,00.0,0640.4,30.9
2021-11-10T08:56:00Z,00000200,01000000,0000.32,0000.10,0000.08,0000.61,-000.14,0000.22,0000.19,-000.07,-000.09,18.3,24.8,,00.0,0640.4,30.9
2021-11-10T08:57:00Z,00000200,41000000,,,,,,,0000.41,0000.68,0000.66,18.3,24.9,,00.0,0640.4,30.9
2021-11-10T08:58:00Z,00000200,61000000,,,,,,,-000.18,-000.20,-000.33,18.1,25.0,,00.0,0639.5,30.9
2021-11-10T08:59:00Z,00000200,21000000,,,,,,,0000.04,0000.14,-000.07,18.1,25.1,,00.0,0639.5,30.9
